STARLINK-1258 (45381 NORAD) Tracking and Keplerian Element Data

This shows tracking and keplerian element data for the satellite.

Feedback or suggestion? Click here.




ElementValue
Catalog45381
NameSTARLINK-1258
Epoch Orbit1900
Epoch Day197.25001157
Epoch Year2020
RAAN49.7537
Inclination53.0014
Eccentricity0.0001887
Argument of Perigee92.7318
Mean Anonmoly74.4517
Mean Motion15.05609254
Decay Rate-0.00034819
L11 45381U 20019X 20197.25001157 -.00034819 00000-0 -23803-2 0 9998
L22 45381 53.0014 49.7537 0001887 92.7318 74.4517 15.05609254 19000

Live tracking and technical data element details for STARLINK-1258 (NORAD 45381). STARLINK-1258 can be tracked NOW for your location showing map with azimuth and elevation plus other details from your city location.

Track the satellite on the map from your city or location and see movement details for azimuth, elevation, latitude, longitude, range, height, and movement on the map or in text.







IsCatalogInMostPopularTable: catalog: 45381, numindb: 21
Update: records affected: 1



GetName: 45381 STARLINK-1258

Hit Count: updated at: Thu, 16 Jul 2020 04:38:11 GMT